Showing default

ORBCOMM FM 29, 33062

Orbit data source: Space-Track

ORBCOMM FM 29, 33062 is a payload satellite owned by Orbcomm (US) in LEO that was launched on Thu, 19 Jun 2008 UTC via a KOSMOS 11K65M launch vehicle from the Kapustin Yar Missile And Space Complex (KYMTR). Payload-class satellites include a variety of spacecraft equipped with specific instruments for various scientific and technological missions. These include communications satellites like Starlink; space stations such as the ISS; scientific satellites like the Hubble; Earth observation satellites from companies like Planet Labs, Umbra, and HawkEye 360; GPS; miniature CubeSats for education and research; and military/defense satellites.

Loading next visibility...
Identifier
33062, 2008-031C
Orbit
LEO
Country
Flag of USUS / ORB
Related business
Manufacturer
OHB/POLK
Mission
Non-operational Commercial Communications
Bus & Motor
STERKH, Unknown motor
Mass
91 kg wet, 91 kg dry
Launch date (UTC)
2008-06-19 (18 years ago)
Launch vehicle
KOSMOS 11K65M
Launch site
Kapustin Yar Missile And Space Complex (KYMTR)
Object type
Payload
Rocket body
Debris
Shape & HBR
Box + 1 Ant, 0.8 m
Radar Cross Section
0.973 m², Medium (>0.1 m² and < 1m²)

Expand to show TLE details & history
Last TLE update: 1 day ago

TLE from 1 day ago
0 ORBCOMM FM 29
1 33062U 08031C   26167.98848832  .00001204  00000-0  17395-3 0  9993
2 33062  48.4403  30.6107 0005350 160.2700 298.2168 14.82791935968250
Epoch: 2026-06-16T23:43Z
TLE epoch observation values (Epoch: 2026-06-16T23:43:25.390Z)
Latitude
47.90003°
Longitude
-127.88718°
Altitude
623.61 km
Speed
7.554 km/s
True Right ascension
08h 52m 53s
True Declination
47° 43' 32"
Sunlit
Object was in daylight at epoch
Visualization orbit readout
Latitude
Unknown
Longitude
Unknown
Altitude
Unknown
Speed
Unknown
Apparent Right ascension
Unknown
Apparent Declination
Unknown
Sunlit
N/A
Visualization observer readout
Local Sidereal Time
13:09:17
Azimuth
Unknown
Elevation
Unknown
Doppler factor
Unknown
Orbital elements
Apogee altitude
625.282 km
Perigee altitude
617.793 km
Semi-major axis
6,999.674 km
Eccentricity
0.00054
Inclination
48.4403°
RAAN
30.6107°
Arg. of periapsis
160.27°
True anomaly
298.16276°
Mean anomaly
298.2168°
Eccentric anomaly
298.18978°
Mean motion
3.70618 °/min
Orbital period
97.14 mins
BSTAR
0.00017395
Loading maneuver chart data...
Computing Atmospheric mass density...
Loading historical data...
Loading historical data...
Loading historical data...
Loading historical data...
Loading historical data...
Loading historical data...
Loading historical data...

Documentation

Showing up to 5 results
|